Chandlersville, OH

2:09 AM EST on December 09, 2016 (GMT -0500)
Zanesville Municipal

Weather History for KZZV - November, 2012

Change the Weather History Date:

Tuesday, November 13, 2012

  Actual Average Record
Temperature  
Mean Temperature 34 °F 44 °F  
Max Temperature 40 °F 54 °F 76 °F (1955)
Min Temperature 27 °F 34 °F 16 °F (1986)
Degree Days  
Heating Degree Days 31 21  
Month to date heating degree days 300 243  
Since 1 July heating degree days 822 730  
Cooling Degree Days 0 0  
Month to date cooling degree days 0 0  
Year to date cooling degree days 980 768  
Moisture  
Dew Point 25 °F    
Average Humidity 71    
Maximum Humidity 92    
Minimum Humidity 50    
Precipitation  
Precipitation 0.00 in 0.11 in 1.11 in (1972)
Month to date precipitation 0.58 1.27  
Year to date precipitation 30.73 33.41  
Sea Level Pressure  
Sea Level Pressure 30.48 in    
Wind  
Wind Speed 3 mph (WSW)    
Max Wind Speed 12 mph    
Max Gust Speed 14 mph    
Visibility 10 miles    
Events      
T = Trace of Precipitation, MM = Missing Value Source: NWS Daily Summary

Daily Weather History Graph

Daily Weather History Graph

Search for Another Location

Airport or City:

Trip Planner

Search our weather history database for the weather conditions in past years. The results will help you decide how hot, cold, wet, or windy it might be!

Date:

Astronomy

Nov. 13, 2012 Rise Set
Actual Time 7:10 AM EST 5:12 PM EST
Civil Twilight 6:41 AM EST 5:41 PM EST
Nautical Twilight 6:09 AM EST 6:14 PM EST
Astronomical Twilight 5:37 AM EST 6:46 PM EST
Moon 6:47 AM EST (11/13) 5:04 PM EST (11/13)
Length of Visible Light 10h 59m
Length of Day
10h 01m
Waning Crescent, 0% of the Moon is Illuminated
Nov 13
Waning Crescent
Nov 13
New
Nov 20
First Quarter
Nov 28
Full
Dec 6
Last Quarter

Hourly Weather History & Observations

Time (EST) Temp. Windchill Dew Point Humidity Pressure Visibility Wind Dir Wind Speed Gust Speed Precip Events Conditions
12:53 AM 32.0 °F - 28.0 °F 85% 30.41 in 10.0 mi Calm Calm - N/A   Clear
1:53 AM 30.9 °F 27.5 °F 28.0 °F 89% 30.41 in 10.0 mi SSW 3.5 mph - N/A   Clear
2:53 AM 30.0 °F 26.5 °F 27.0 °F 88% 30.41 in 10.0 mi SSW 3.5 mph - N/A   Clear
3:53 AM 30.0 °F 26.5 °F 26.1 °F 85% 30.41 in 10.0 mi SSW 3.5 mph - N/A   Clear
4:53 AM 28.0 °F 24.2 °F 25.0 °F 88% 30.42 in 10.0 mi SSW 3.5 mph - N/A   Clear
5:53 AM 28.9 °F 25.2 °F 26.1 °F 89% 30.43 in 10.0 mi SSW 3.5 mph - N/A   Mostly Cloudy
6:53 AM 28.0 °F 22.8 °F 25.0 °F 88% 30.45 in 10.0 mi SSW 4.6 mph - N/A   Clear
7:53 AM 28.0 °F - 26.1 °F 92% 30.48 in 10.0 mi Calm Calm - N/A   Clear
8:53 AM 30.9 °F 27.5 °F 26.1 °F 82% 30.49 in 10.0 mi SW 3.5 mph - N/A   Clear
9:53 AM 35.1 °F 30.1 °F 27.0 °F 72% 30.49 in 10.0 mi West 5.8 mph - N/A   Clear
10:53 AM 37.0 °F 31.0 °F 25.0 °F 62% 30.50 in 10.0 mi West 8.1 mph - N/A   Partly Cloudy
11:53 AM 37.0 °F 31.6 °F 23.0 °F 57% 30.49 in 10.0 mi WNW 6.9 mph - N/A   Mostly Cloudy
12:53 PM 37.9 °F 31.5 °F 23.0 °F 55% 30.47 in 10.0 mi NW 9.2 mph - N/A   Overcast
1:53 PM 39.0 °F 36.8 °F 23.0 °F 53% 30.47 in 10.0 mi Variable 3.5 mph - N/A   Overcast
2:53 PM 39.0 °F 34.8 °F 23.0 °F 53% 30.47 in 10.0 mi NW 5.8 mph - N/A   Overcast
3:53 PM 37.9 °F 35.5 °F 21.9 °F 53% 30.48 in 10.0 mi NNE 3.5 mph - N/A   Overcast
4:53 PM 37.9 °F 35.5 °F 23.0 °F 55% 30.49 in 10.0 mi North 3.5 mph - N/A   Overcast
5:53 PM 37.0 °F - 24.1 °F 59% 30.49 in 10.0 mi Calm Calm - N/A   Overcast
6:53 PM 36.0 °F - 23.0 °F 59% 30.50 in 10.0 mi Calm Calm - N/A   Overcast
7:53 PM 36.0 °F - 24.1 °F 62% 30.51 in 10.0 mi Calm Calm - N/A   Overcast
8:53 PM 34.0 °F 31.0 °F 24.1 °F 67% 30.53 in 10.0 mi NE 3.5 mph - N/A   Partly Cloudy
9:53 PM 33.1 °F - 23.0 °F 66% 30.55 in 10.0 mi Calm Calm - N/A   Clear
10:53 PM 28.9 °F - 23.0 °F 78% 30.55 in 10.0 mi Calm Calm - N/A   Clear
11:53 PM 27.0 °F - 23.0 °F 85% 30.55 in 10.0 mi Calm Calm - N/A   Clear